Погода в Карши

Погода в Карши : погода сейчас, прогноз погоды и архив. Всё, что Вы хотите узнать о погоде в Карши!

Хотите узнать прогноз погоды в Карши? Тогда Вам сюда: Погода в Карши

Поиск расширенной информации на нашем сайте:

Другие новости

Новости СМИ2

Главная страница сайта

Новости сайта

02.10.2013

Напоминаем, что на нашем новом сайте вы можете получить высокодетализированные прогнозы погоды по пунктам России, СНГ и мира (включающие важные для авиации метеовеличины, такие как направление и скорость ветра, видимость, явления погоды, количество и форма облачности, нижняя и верхняя граница облачности), а также ознакомиться с разнообразными материалами по авиационной метеорологии и подборкой полезных ссылок на эту тему.

Сайт Метеоцентр.Азия посвящён разработке технологий оптимизации авиаметеорологического обслуживания, включая проектирование и перспективное создание нескольких автоматизированных авиаметеорологических систем:
- система выпуска высокодетальных прогностических карт явлений погоды для нижнего воздушного пространства по России и ближнему зарубежью;
- система верификации прогнозов TAF (выпускаемых синоптиками официальных АМСГ РФ и ближнего зарубежья) и AUTOTAF (выпускаемых сайтом Метеоцентр.Азия) - выявление ошибок, онлайн-сопоставление с фактической погодой METAR, автоматическое внесение коррективов в прогнозы при резком отклонении фактической погоды от прогноза, подсчёт оправдываемости прогнозов по элементам и в целом;
- система обработки, анализа и отображения авиаметеорологической информации для применения провайдерами метеорологической информации.


Погода в Карши - сегодня

Время (UTC), дата Ветер
(°,м/с) 
Видим.   Явления Облачность Т
(°С)
Тd
(°С)
f(%) Тe
(°С)
Pmin
(гПа)
dP
(гПа)
Po
(мм)
O2
(г/м3)
Тmin Tmax R s Состояние
почвы
18 19.06.17 320 (СЗ) 10 км    ясно 
+24.8 +10.2 40 +27  1001.9  0.3  720  264    +38.7       
21 19.06.17 310 (СЗ) 10 км    ясно 
+21.9 +11.5 52 +26  1001.4  -0.8  719  266           
00 20.06.17 нст () 10 км    ясно 
+20.9 +11.1 53 +24  1002.2  0.5  720  267           
03 20.06.17 360 (С) 10 км    ясно 
+26.8 +13 42 +33  1001.2  -0.1  720  262           
06 20.06.17 350 (С) 10 км    ясно 
+35.4 +5.6 16 +35  1000.6  0.5  720  256  +20.9         
09 20.06.17 350 (С) 10 км    ясно 
+37.8 +9.3 18 +39  1099.2  -1  719  253           
12 20.06.17 340 (С) 10 км    ясно 
+38 +9.7 18 +40  998.8  -0.4  719  253           
15 20.06.17 360 (С) 10 км    3/0 верхняя 
[Ci fib]
+33.8 +6.8 19 +34  998.3  -1  718  256    +38.5       
18 20.06.17 320 (СЗ) 10 км    ясно 
+27 +13.2 43 +34  999.8  0.7  719  261    +38.5       
21 20.06.17 350 (С) 10 км    ясно 
+22 +6.8 37 +22  998.9  -1.7  718  266           
00 21.06.17 тихо ()   10 км    ясно 
+21 +12.9 60 +27  998.7  -0.2  717  266    +1.9       
03 21.06.17 нст () 10 км    ясно 
+28.4 +12.1 36 +33  998.7  0.9  718  260           
06 21.06.17 330 (СЗ) 10 км    ясно 
+32.8 +14.9 34 +43  997.2  -0.7  718  255  +21         
09 21.06.17 300 (СЗ) 10 км    ясно 
+37.8 +8 16 +38  996.9  0.2  718  253           
12 21.06.17 350 (С) 10 км    ясно 
+38.8 +7.8 15 +39  996.5  -0.3  717  252           
15 21.06.17 330 (СЗ) 10 км    ясно 
+35.4 +6.5 17 +35  996.5  -0.3  717  255    +39.4       
18 21.06.17 тихо ()   10 км    ясно 
+26.2 +12.6 43 +32  999.1  1.2  718  262    +39.4       
21 21.06.17 150 (ЮВ) 10 км    ясно 
+23.9 +14.1 54 +32  999.1  -0.2  718  263           
00 22.06.17 070 (В) 10 км    ясно 
+22.3 +11.2 49 +26  999.8  0.4  718  265           
03 22.06.17 100 (В) 10 км    ясно 
+27 +10.7 36 +30  1000.3  0.4  719  262           
06 22.06.17 260 (З) 10 км    ясно 
+34.6 +9.7 22 +36  999.6  0.4  719  256  +22.3         
09 22.06.17 240 (ЮЗ) 10 км    ясно 
+38.7 +8 16 +39  998.8  -0.2  719  252           
12 22.06.17 270 (З) 10 км    ясно 
+40.3 +10.3 17 +43  999.1  0.4  719  251           
15 22.06.17 тихо ()   10 км    ясно 
+37 +5.9 15 +37  998.5  -1  719  254    +40.8       
18 22.06.17 350 (С) 10 км    3/0 верхняя 
[Ci fib]
+29.8 +16.4 44 +42  1000.5  1.1  720  258    +40.8       
Время (UTC), дата Ветер
(°,м/с) 
Видим.   Явления Облачность Т
(°С)
Тd
(°С)
f(%) Тe
(°С)
Pmin
(гПа)
dP
(гПа)
Po
(мм)
O2
(г/м3)
Тmin Tmax R s Состояние
почвы

Для получения пояснительной информации подведите курсор к названию столбца.

ПОГОДА в Карши - архив

Всё, что Вы хотите узнать о погоде в Карши - удобно и подробно!

Выберите нужную дату (начиная с 1 января 2015* года) и нажмите кнопку "Найти".
Будут отображены архивные сводки погоды по пункту Карши, начиная с указанной даты.


Отображать данные в формате CSV (для использования в таблицах Excel)


Внимание! Наш архив погоды предназначен исключительно для личного некоммерческого использования в познавательных целях. Если Вам необходимы официальные справки о состоянии погоды (для производственных, юридических, коммерческих и т.п. целей), обращайтесь в органы Росгидромета.

*Примечание: данная дата относится к архиву по метеостанциям СССР (Россия, СНГ, Балтия).
Архив по метеостанциям Зарубежной Европы и Азии (кроме Китая) хранится 10 дней, по другим регионам земного шара (Китай, Африка, Америка, Австралия, Океания) - 1 день.

Карши - район местоположения метеостанции


Название, широта, долгота, высота метеостанции:
Карши (аэропорт) 38.8°ш. 65.7°д. 376 м над ур. моря [Узбекистан]

Дополнительная информация

В oтличие oт бoльшинства пoгoдных сайтoв мы публикуем пoдрoбную метеoинфoрмацию в детальнoм прoфессиoнальнoм фoрмате.

Характеристики температуры и влажнoсти вoздуха измеряются на высoте 2 м в тени вдали oт зданий и деревьев.
Скoрoсть ветра измеряется на высoте 10 м (на урoвне рoста челoвека скoрoсть ветра ниже в 1.5-2 раза). Если метеoстанция нахoдится в гoрoде или в лесу, тo скoрoсть ветра занижена на 2-4 м/с пo сравнению с oткрытым местoм. Скoрoсть ветра над акватoриями крупных рек и oзёр, а также на вершинах хoлмoв на 2-5 м/с выше, чем в oбычных услoвиях.
Атмoсфернoе давление в разных тoчках местнoсти мoжет значительнo oтличаться oт давления на метеoстанции, в зависимoсти oт услoвий рельефа (при пoдъёме на 10 м давление пoнижается примернo на 1 мм рт.ст.).